星链-31932 (STARLINK-31932 )

导读

STARLINK-31932是美国太空探索技术公司(SpaceX)星链计划中的一颗卫星,于2024年6月1日发射,星链计划旨在构建全球卫星互联网星座,为全球提供高速互联网接入服务。该卫星加入了日益庞大的星链卫星网络,进一步推进了低轨卫星星座的部署,拓展了全球卫星互联网的覆盖范围与服务能力。

Basic Information
目录编号:
59929
目录名称:
STARLINK-31932
国际标识:
2024-106H
轨道中心:
EARTH
卫星名称:
星链-31932
卫星全名:
星链-31932 (STARLINK-31932 )
卫星状态:
在轨 (已飞行747 天)
发射日期:
2024-06-01 UTC
国别 :
美国 (US)
星等 :
--
Orbit Information
数据来源 国际轨道数据 AOE轨道数据
星历时间 2026-06-17T12:12:25+0800
23小时前
查看轨道信息
2026-06-14T01:00:00+0800
4天前
查看轨道信息
半长轴 6864.745km 6861.203km
偏心率 0.0006279 0.0001983
轨道倾角 42.986° 43.003°
近地点辐角 333.504° 237.207°
升交点赤经 127.467° 147.059°
平近点角 26.549° 114.711°
近地点 482.297km 481.705km
远地点 490.919km 484.427km
周期 94.340分钟 94.267分钟
每日圈数 15.263925 15.275744
Detailed Information
固有亮度:
5
最大亮度:
1.5
卫星平台:
Starlink v2.0 mini
覆盖范围:
全球
运营商:
太空探索技术公司
运营商所在国:
美国
制造商(研发单位):
太空探索技术公司
制造商所在国:
美国
使用方式:
暂无
Satellite Introduction
星链(Starlink)计划是由太空探索技术公司(SpaceX)提出的一个巨型低轨卫星互联网星座项目,计划在2019年至2024年间在太空搭建由约1.2万颗卫星组成的“星链”网络,其中1584颗将部署在地球上空550千米处的近地轨道,并从2020年开始工作。该卫星仍在工作。
2D Orbit Map
3D Orbit Map
Orbit Altitude Analysis Chart
Orbit Inclination Analysis Chart
Orbit Comprehensive Analysis Chart
View Comprehensive Chart